Wind_Speed
16 15 20 22 14 16 10 8 9 10 5 17 24 20 30 29 26 21 23 28 23 23 19 18 15 11 10 12 10 15 14 15 16 15 14 14 14 17 19 16 12 13 12 11
11 17 12 9 10 13 18 10 13 12 7 9 19 22 31 34 30 28 23 26 23 23 22 19 16 13 11 11 10 7 12 15 16 16 13 16 18 14 17 16 13 10 11 8
14 7 8 13 17 17 12 9 18 8 22 13 9 27 27 33 30 34 32 30 25 26 23 22 16 15 12 13 13 12 14 14 16 16 13 11 14 15 17 17 15 10 9 9
17 13 16 14 17 16 24 17 20 17 25 9 13 5 27 37 35 38 35 36 34 31 27 23 20 18 13 8 15 15 14 14 14 14 14 11 11 12 15 17 15 14 12 9
15 12 12 15 17 14 14 17 20 17 13 9 14 4 11 29 40 45 42 37 35 34 27 28 23 20 13 8 7 18 17 15 16 13 13 16 11 14 12 12 14 14 14 13
19 14 14 9 12 13 14 11 15 16 6 7 11 15 14 30 39 51 50 43 39 39 33 28 26 22 19 11 7 16 15 13 14 14 14 14 14 12 10 11 13 10 10 10
11 15 14 14 15 10 9 17 6 1 3 5 9 16 19 14 27 35 52 47 40 37 35 30 22 20 23 11 13 12 16 15 14 13 15 13 10 10 8 8 11 11 9 11
14 13 13 14 14 16 18 17 13 5 2 7 7 11 18 20 24 21 46 44 46 38 39 33 22 28 20 18 11 7 14 17 18 16 15 12 12 12 13 10 8 11 11 11
10 14 15 17 19 20 22 23 14 3 10 5 13 8 7 14 11 19 32 48 50 48 33 38 24 28 25 21 13 13 14 16 17 16 17 15 15 13 12 12 9 8 12 12
19 12 13 5 16 18 23 15 17 20 8 4 14 8 5 7 11 13 26 47 43 40 38 34 30 29 23 21 16 12 15 17 16 17 17 15 15 14 10 10 9 10 7 7
4 11 18 13 18 17 22 18 18 15 15 4 3 6 10 4 10 14 29 42 41 40 35 36 32 36 32 29 22 18 16 17 18 17 16 17 16 15 13 11 11 10 8 7
10 10 16 16 9 16 17 19 18 18 14 17 6 8 15 15 12 14 30 39 37 33 35 41 35 39 39 34 26 23 15 17 14 16 17 17 17 15 15 13 12 13 13 10
12 4 10 14 6 6 16 18 18 21 22 23 9 7 17 21 11 7 13 35 31 34 27 27 43 38 32 37 32 25 21 23 20 14 17 16 17 15 14 15 16 16 14 13
9 14 11 7 14 17 16 7 20 21 23 23 21 9 17 17 10 11 19 33 30 41 40 34 37 32 37 39 35 27 23 21 21 18 17 18 18 18 17 17 17 18 18 18
11 16 14 14 13 13 17 11 18 26 24 22 14 7 15 18 17 17 20 34 36 38 41 41 42 36 33 35 31 26 25 25 22 14 22 22 23 24 19 17 18 19 19 20
8 9 12 10 9 10 9 13 23 12 10 11 8 12 18 16 15 13 22 16 40 39 32 35 37 35 34 30 31 22 29 32 22 18 24 24 21 12 28 29 24 18 21 21
4 8 8 1 7 6 2 14 17 4 3 2 7 6 5 3 8 16 19 24 27 30 31 34 39 41 40 26 16 22 22 18 21 19 19 21 16 17 22 31 27 25 21 23
8 9 8 7 5 1 6 4 11 20 19 11 13 12 11 9 6 8 13 16 7 13 23 25 34 34 41 30 18 18 21 23 17 15 16 19 23 18 20 25 18 22 23 23
6 13 9 3 4 8 4 3 9 18 19 15 12 15 17 16 7 8 9 12 16 18 14 17 23 24 27 28 21 25 24 21 20 20 18 19 21 15 16 21 22 28 28 27
12 5 10 6 4 1 3 2 7 7 19 11 10 9 6 8 8 8 8 10 17 13 12 18 19 17 14 18 21 24 32 23 20 18 18 17 15 12 11 15 17 19 27 34
12 4 9 14 4 5 11 3 8 5 2 5 8 6 8 8 4 3 5 3 7 11 13 16 14 17 15 18 18 17 7 11 22 17 19 16 14 15 12 14 15 19 21 25
7 4 6 4 2 5 10 5 5 11 7 9 3 7 6 0 5 2 4 7 6 8 10 7 6 8 12 14 15 16 20 20 24 19 24 20 22 19 17 11 12 8 6 6
7 3 2 1 5 13 5 11 16 9 8 2 4 4 4 5 5 2 8 10 10 12 10 8 9 11 11 10 11 14 16 18 19 21 25 28 25 25 24 21 16 15 13 11
4 2 2 12 12 8 3 5 4 5 5 6 1 2 2 5 4 2 1 3 7 9 9 9 9 11 11 12 13 15 16 19 19 19 19 23 23 23 25 21 22 24 21 15
4 1 1 7 16 11 9 6 5 4 5 3 5 7 3 7 7 6 6 7 5 4 5 9 11 12 11 10 9 11 16 12 16 17 20 22 22 23 22 24 26 28 22 19
5 6 5 7 12 6 10 9 8 8 6 3 6 3 2 5 9 6 7 8 9 9 9 7 7 8 9 9 10 11 13 11 16 18 16 19 20 26 25 22 22 27 26 24
Wind_Direction
212 205 215 206 216 233 335 354 170 153 144 171 177 181 162 168 170 178 178 185 192 202 210 222 231 219 217 230 204 179 172 168 164 166 159 151 165 161 164 179 170 143 160 153
214 244 218 205 245 243 260 272 161 135 161 201 192 194 174 171 173 177 189 195 199 201 196 212 226 216 211 223 202 169 189 170 162 154 164 158 173 184 167 170 171 166 157 170
224 220 207 221 233 249 230 218 194 190 163 189 158 218 202 181 187 180 192 194 203 207 216 204 230 231 227 212 211 176 185 167 158 164 158 170 173 159 166 168 168 177 168 183
242 216 236 225 238 240 231 238 245 195 162 154 177 174 217 220 202 189 190 190 195 215 205 217 217 221 233 190 207 201 194 171 174 161 179 167 153 156 164 170 170 174 177 189
239 257 248 256 237 242 240 294 201 153 146 133 163 149 217 208 215 199 192 189 198 203 219 208 221 238 224 219 208 206 196 182 191 188 185 160 173 169 172 185 176 178 183 181
246 240 253 257 229 259 136 128 149 146 154 161 196 223 241 219 214 200 195 198 200 200 200 213 221 230 223 232 213 210 202 193 198 189 188 179 177 172 167 186 175 171 182 182
240 245 230 253 227 204 173 168 142 123 61 250 239 202 244 254 254 232 201 197 204 194 197 203 222 211 213 215 207 188 209 199 197 196 189 195 177 177 191 180 184 183 192 189
249 253 251 232 227 226 205 222 230 131 88 327 135 214 260 286 260 238 215 209 206 203 208 207 206 211 206 215 210 243 216 201 202 201 194 199 186 191 179 188 199 194 193 191
295 256 242 226 229 220 228 216 249 147 123 17 276 216 316 314 241 238 203 205 206 211 207 208 202 209 205 216 234 224 216 215 207 213 211 202 200 208 209 201 196 197 203 182
268 292 272 280 231 231 236 252 229 242 151 172 199 189 229 246 223 211 200 196 203 207 204 206 205 211 205 219 245 234 224 221 215 210 214 215 214 216 221 227 215 205 196 184
324 309 277 281 200 219 238 244 247 274 274 202 117 292 176 103 247 205 201 208 198 201 197 210 209 213 216 213 224 234 230 226 221 213 214 212 220 220 214 224 218 227 224 198
314 307 301 279 256 220 225 241 244 259 274 294 260 216 202 209 180 252 226 202 201 204 214 222 223 217 205 212 226 210 245 226 223 215 219 213 215 220 218 216 226 229 228 221
328 296 333 318 278 273 225 239 248 254 268 282 277 228 191 205 200 70 213 198 194 214 211 203 216 212 225 214 215 217 221 231 221 211 215 212 218 219 225 222 229 234 231 233
288 291 276 326 293 296 303 299 247 257 269 272 285 195 175 190 197 179 193 195 194 212 213 204 207 213 205 208 216 215 225 218 235 220 226 207 213 216 218 222 225 231 231 231
262 272 284 294 289 294 258 303 325 254 256 271 259 160 163 174 191 211 215 194 194 206 215 213 221 215 215 212 201 224 214 243 226 216 248 234 212 288 233 229 228 230 229 231
198 280 270 290 283 287 269 339 351 283 298 289 217 191 183 206 210 225 222 215 188 207 206 211 218 219 208 218 235 240 223 226 221 234 238 238 259 249 256 224 217 222 230 228
174 358 342 300 305 275 200 24 18 46 96 293 193 146 165 173 217 241 285 296 183 193 213 218 213 217 216 230 224 228 226 220 220 229 233 241 266 282 258 241 205 216 223 231
319 320 326 283 335 209 88 341 60 30 48 93 77 92 94 123 131 100 99 119 170 212 219 216 217 221 228 232 222 226 218 222 236 234 237 242 256 282 240 225 205 212 218 223
305 253 262 224 233 306 233 56 50 36 39 49 69 96 106 115 121 128 136 167 192 201 225 228 220 224 225 227 235 232 214 215 232 244 250 250 264 263 236 240 235 234 236 239
284 264 231 179 158 156 305 18 30 95 49 24 20 58 104 90 108 94 76 174 192 188 216 233 230 230 223 238 251 245 219 237 257 255 258 262 268 217 224 228 238 246 251 239
325 289 293 260 160 220 292 264 303 308 20 333 23 41 158 121 63 96 91 79 177 201 215 237 235 236 230 234 237 239 218 240 245 245 254 256 224 230 232 251 254 264 260 258
337 321 223 109 78 103 137 180 191 137 144 254 292 88 107 40 111 72 272 218 249 215 212 223 241 240 231 227 232 226 223 230 238 239 249 247 240 243 239 263 260 231 194 244
2 27 319 208 70 101 152 145 132 162 169 117 315 315 330 58 57 187 203 207 219 227 242 239 235 241 251 247 237 232 236 242 245 239 242 244 239 242 242 250 244 221 214 212
190 348 44 125 153 151 133 187 168 182 163 172 246 233 335 283 287 22 33 236 230 225 241 248 255 262 258 259 255 252 246 251 249 248 236 244 245 249 255 249 243 233 233 236
316 341 283 171 181 162 178 226 270 237 209 218 200 266 283 279 277 284 275 269 266 239 248 266 274 274 271 268 268 269 288 277 261 236 242 254 250 249 244 243 232 232 236 241
203 221 214 185 215 226 225 251 276 294 289 251 224 261 219 250 279 273 267 262 255 251 254 266 281 294 291 280 271 266 260 271 278 255 264 249 254 243 235 230 242 232 228 227
Height
3147 3150 3150 3153 3155 3156 3159 3160 3160 3166 3170 3172 3174 3179 3180 3185 3187 3192 3196 3198 3200 3203 3205 3204 3207 3208 3211 3211 3212 3215 3216 3217 3219 3221 3222 3223 3226 3229 3232 3233 3236 3240 3242 3243
3149 3146 3149 3153 3155 3157 3157 3160 3164 3167 3169 3174 3174 3178 3178 3181 3185 3189 3196 3197 3199 3200 3202 3203 3205 3208 3212 3212 3213 3215 3217 3217 3220 3222 3224 3225 3225 3230 3232 3235 3236 3239 3242 3243
3146 3145 3149 3152 3154 3156 3153 3159 3162 3161 3164 3171 3173 3178 3178 3179 3183 3185 3190 3194 3196 3197 3201 3201 3204 3207 3211 3211 3212 3215 3217 3220 3223 3225 3227 3228 3229 3230 3233 3235 3236 3239 3241 3243
3146 3143 3149 3151 3152 3154 3155 3154 3160 3163 3162 3168 3170 3173 3173 3176 3180 3181 3185 3189 3192 3195 3199 3201 3203 3206 3210 3212 3213 3215 3216 3222 3224 3225 3227 3229 3231 3232 3234 3236 3237 3238 3240 3242
3144 3143 3145 3149 3150 3151 3150 3150 3155 3160 3163 3166 3171 3173 3171 3174 3173 3174 3179 3184 3187 3193 3196 3200 3201 3205 3208 3211 3214 3215 3217 3221 3224 3228 3229 3227 3231 3232 3235 3237 3237 3240 3241 3242
3142 3142 3146 3146 3149 3149 3148 3153 3159 3161 3160 3165 3164 3173 3165 3159 3154 3167 3174 3179 3183 3188 3194 3199 3203 3203 3207 3210 3213 3214 3216 3220 3223 3225 3227 3227 3231 3232 3234 3236 3237 3239 3241 3242
3141 3140 3142 3145 3147 3149 3146 3155 3158 3161 3161 3162 3162 3168 3152 3157 3159 3162 3169 3174 3179 3185 3192 3196 3200 3204 3205 3207 3212 3214 3217 3219 3221 3223 3227 3229 3231 3232 3234 3237 3238 3239 3241 3243
3141 3141 3141 3141 3144 3146 3147 3149 3152 3155 3161 3163 3157 3162 3156 3152 3152 3157 3163 3171 3177 3183 3189 3191 3198 3200 3204 3206 3212 3214 3217 3220 3222 3223 3225 3228 3231 3233 3235 3238 3239 3239 3240 3242
3138 3138 3139 3140 3142 3144 3145 3146 3149 3154 3158 3164 3163 3160 3154 3148 3148 3151 3157 3166 3173 3182 3187 3190 3196 3199 3202 3203 3207 3214 3217 3219 3222 3224 3226 3228 3232 3234 3236 3237 3237 3238 3240 3241
3137 3136 3134 3136 3139 3140 3142 3146 3148 3147 3155 3162 3154 3154 3154 3153 3155 3156 3158 3165 3173 3180 3184 3187 3191 3197 3198 3201 3207 3212 3216 3217 3220 3223 3225 3227 3229 3233 3235 3236 3237 3238 3239 3241
3135 3135 3132 3133 3133 3138 3140 3140 3143 3146 3146 3144 3153 3152 3151 3153 3159 3159 3162 3166 3174 3179 3182 3184 3187 3193 3198 3201 3204 3209 3212 3215 3217 3221 3223 3226 3228 3229 3232 3235 3237 3238 3238 3241
3135 3134 3132 3131 3133 3134 3138 3140 3142 3143 3143 3141 3142 3145 3148 3149 3154 3156 3159 3161 3167 3175 3179 3181 3186 3189 3194 3196 3200 3205 3209 3213 3215 3218 3221 3223 3225 3227 3229 3231 3233 3235 3237 3239
3134 3135 3133 3131 3131 3134 3135 3137 3138 3141 3141 3140 3142 3145 3144 3146 3146 3146 3151 3158 3162 3168 3169 3175 3182 3186 3190 3192 3196 3201 3203 3208 3211 3215 3216 3219 3222 3225 3227 3229 3231 3232 3234 3236
3136 3136 3138 3141 3141 3137 3135 3135 3137 3137 3137 3138 3140 3139 3141 3142 3143 3146 3146 3156 3162 3164 3167 3172 3175 3179 3183 3189 3193 3198 3202 3208 3211 3211 3214 3215 3218 3221 3222 3225 3227 3230 3232 3233
3134 3134 3135 3137 3136 3136 3134 3135 3135 3133 3133 3135 3138 3139 3140 3142 3145 3147 3147 3149 3159 3162 3165 3169 3173 3179 3181 3186 3189 3194 3199 3205 3208 3208 3211 3212 3213 3218 3219 3220 3222 3226 3228 3230
3133 3132 3131 3132 3133 3132 3133 3135 3128 3126 3128 3130 3133 3135 3137 3143 3146 3147 3147 3148 3147 3154 3163 3169 3172 3176 3180 3183 3187 3188 3191 3192 3204 3205 3209 3209 3210 3210 3208 3211 3214 3220 3223 3226
3131 3129 3130 3132 3132 3131 3135 3136 3134 3132 3127 3129 3132 3135 3137 3141 3143 3145 3143 3139 3138 3149 3159 3167 3170 3174 3178 3182 3186 3184 3184 3190 3192 3200 3202 3202 3203 3202 3201 3204 3205 3211 3214 3221
3131 3131 3131 3131 3131 3133 3136 3137 3139 3135 3130 3132 3132 3134 3134 3136 3138 3139 3135 3136 3147 3154 3157 3163 3166 3170 3172 3178 3182 3182 3186 3190 3192 3194 3196 3197 3197 3198 3197 3198 3202 3206 3209 3214
3127 3129 3130 3131 3131 3132 3136 3137 3136 3133 3135 3136 3138 3136 3137 3140 3141 3142 3144 3145 3151 3156 3158 3161 3159 3167 3168 3166 3173 3179 3183 3185 3188 3190 3192 3193 3194 3195 3196 3198 3201 3205 3207 3209
3124 3125 3128 3129 3130 3134 3134 3135 3137 3137 3137 3137 3137 3138 3140 3142 3143 3145 3146 3149 3152 3155 3157 3161 3163 3164 3163 3168 3172 3171 3172 3173 3182 3184 3187 3189 3190 3193 3194 3196 3199 3201 3200 3202
3125 3124 3127 3127 3126 3127 3128 3135 3135 3138 3144 3136 3138 3140 3140 3145 3147 3147 3148 3150 3153 3154 3157 3161 3158 3163 3164 3166 3168 3169 3170 3174 3177 3181 3183 3185 3188 3191 3191 3192 3194 3194 3194 3195
3126 3125 3125 3125 3127 3130 3131 3135 3136 3138 3133 3136 3139 3139 3142 3144 3144 3147 3148 3150 3151 3154 3154 3154 3155 3160 3162 3162 3166 3167 3169 3171 3173 3177 3179 3182 3184 3187 3188 3188 3189 3190 3191 3192
3122 3123 3125 3129 3134 3129 3131 3134 3132 3135 3138 3141 3136 3135 3139 3141 3141 3143 3144 3145 3149 3150 3150 3151 3154 3160 3160 3161 3163 3164 3166 3168 3169 3171 3172 3175 3177 3180 3182 3183 3186 3187 3188 3189
3122 3123 3125 3124 3131 3133 3131 3131 3131 3134 3136 3137 3133 3134 3136 3136 3139 3140 3142 3143 3145 3147 3148 3152 3155 3156 3157 3158 3161 3162 3162 3163 3164 3166 3167 3169 3171 3174 3176 3179 3180 3183 3184 3185
3124 3124 3124 3125 3129 3130 3128 3128 3131 3133 3134 3132 3132 3129 3131 3133 3135 3137 3139 3140 3142 3145 3147 3149 3150 3151 3152 3154 3156 3157 3158 3159 3161 3163 3163 3165 3167 3167 3171 3173 3174 3177 3178 3180
3124 3123 3122 3121 3122 3125 3126 3127 3129 3130 3129 3132 3132 3129 3131 3133 3133 3134 3134 3136 3138 3140 3143 3145 3146 3147 3148 3150 3152 3153 3156 3156 3158 3157 3159 3160 3161 3162 3163 3166 3169 3170 3172 3172